Location: Angwan Shehu
(11.2514°N, 7.4613°E)
Time: 05:05:29
(UTC+00:00)

Altair - Visible Passes

Search period start: 14 April 2021 00:00
Search period end: 24 April 2021 00:00
Orbit: 1501 x 1683 km, 47.2° (Epoch: 12 April)

Date Brightness Start Highest point End Pass type
(mag) Time Alt. Az. Time Alt. Az. Time Alt. Az.
14 Apr 8.6 03:16:29 16° S 03:23:47 39° SE 03:32:42 10° ENE visible
15 Apr 8.7 02:53:33 23° S 02:58:35 35° SE 03:07:15 10° ENE visible
15 Apr 7.9 04:53:26 10° WSW 05:03:11 54° NW 05:12:39 10° NNE visible
16 Apr 8.8 02:30:31 27° SSE 02:33:23 31° SE 02:41:45 10° ENE visible
16 Apr 7.7 04:28:37 12° SW 04:37:58 60° NW 04:47:34 10° NNE visible
17 Apr 8.8 02:07:26 27° SE 02:08:11 28° SE 02:16:11 10° ENE visible
17 Apr 7.6 04:05:30 21° SW 04:12:45 67° NW 04:22:29 10° NNE visible
18 Apr 9.1 01:44:15 24° ESE 01:44:15 24° ESE 01:50:31 10° ENE visible
18 Apr 7.6 03:42:18 33° SW 03:47:32 74° NW 03:57:22 10° NE visible
19 Apr 9.4 01:20:58 18° ESE 01:20:58 18° ESE 01:24:46 10° E visible
19 Apr 7.5 03:19:02 50° SW 03:22:20 82° NW 03:32:14 10° NE visible
20 Apr 9.6 00:57:37 13° E 00:57:37 13° E 00:58:53 10° E visible
20 Apr 7.4 02:55:40 71° SW 02:57:07 89° NW 03:07:04 10° NE visible
21 Apr 7.5 02:32:13 82° E 02:32:13 82° E 02:41:53 10° NE visible
21 Apr 8.7 04:30:15 12° W 04:37:11 24° NW 04:44:41 10° N visible
22 Apr 7.9 02:08:41 61° ENE 02:08:41 61° ENE 02:16:40 10° NE visible
22 Apr 8.6 04:06:43 18° W 04:11:52 27° NW 04:19:48 10° NNE visible
23 Apr 8.3 01:45:05 44° ENE 01:45:05 44° ENE 01:51:25 10° NE visible
23 Apr 8.5 03:43:07 25° WNW 03:46:34 30° NW 03:54:52 10° NNE visible
